GW5858 Weather Reports


Display with metric or nautical units.
time (UTC)temp
F
wind
direction
speed
MPH
gust
MPH
rain 1hr
in
rain 24hr
in
rain mn
in
humidity
%
barometer
mb
20260505001516 61 263 1.0 3.0 0.00 0.00 0.00 52 1003.5
20260505000019 62 286 1.0 3.0 0.00 0.00 0.00 51 1003.5
20260504234508 62 327 2.0 6.0 0.00 0.00 0.00 49 1003.5
20260504233005 63 294 2.0 5.0 0.00 0.00 0.00 49 1003.5
20260504231515 64 261 2.0 8.0 0.00 0.00 0.00 49 1003.5
20260504230019 65 350 3.0 7.0 0.00 0.00 0.00 48 1003.6
20260504224520 65 311 3.0 8.0 0.00 0.00 0.00 1003.6
20260504223014 67 274 3.0 6.0 0.00 0.00 0.00 45 1003.4
20260504221511 67 286 1.0 13.0 0.00 0.00 0.00 45 1003.3
20260504220008 69 289 3.0 11.0 0.00 0.00 0.00 41 1003.5
20260504214508 69 330 5.0 12.0 0.00 0.00 0.00 39 1003.4
20260504213018 69 279 4.0 10.0 0.00 0.00 0.00 41 1003.4
20260504211526 70 304 3.0 11.0 0.00 0.00 0.00 40 1003.4
20260504210018 70 279 2.0 9.0 0.00 0.00 0.00 43 1003.5
20260504204518 71 284 2.0 13.0 0.00 0.00 0.00 42 1003.6
20260504203013 71 340 6.0 13.0 0.00 0.00 0.00 41 1003.8
20260504201508 73 352 2.0 10.0 0.00 0.00 0.00 43 1003.8
20260504200023 72 301 3.0 12.0 0.00 0.00 0.00 43 1004.0
20260504194519 72 334 3.0 13.0 0.00 0.00 0.00 45 1004.0
20260504193023 71 10 2.0 11.0 0.00 0.00 0.00 44 1004.5
20260504191523 71 255 6.0 14.0 0.00 0.00 0.00 44 1004.9
20260504190019 71 306 3.0 13.0 0.00 0.00 0.00 43 1005.2
20260504184518 71 325 5.0 12.0 0.00 0.00 0.00 44 1005.2
20260504183013 71 296 4.0 9.0 0.00 0.00 0.00 43 1005.3
20260504181526 69 261 3.0 11.0 0.00 0.00 0.00 46 1005.5
20260504180019 69 327 5.0 10.0 0.00 0.00 0.00 46 1005.8
20260504174520 69 298 5.0 12.0 0.00 0.00 0.00 47 1006.0
20260504173018 69 277 4.0 15.0 0.00 0.00 0.00 45 1006.1
20260504171519 69 236 2.0 14.0 0.00 0.00 0.00 46 1006.0
20260504081527 50 265 2.0 9.0 0.00 0.00 0.00 57 1007.9
20260504050021 52 273 3.0 12.0 0.00 0.00 0.00 61 1009.7
20260504044525 52 352 5.0 11.0 0.00 0.00 0.00 54 1009.8
20260504043021 52 263 1.0 9.0 0.00 0.00 0.00 55 1009.2
20260504041515 51 269 2.0 8.0 0.00 0.00 0.00 62 1009.1
20260504040012 50 296 3.0 8.0 0.00 0.00 0.00 64 1009.3
20260504034519 51 66 4.0 16.0 0.00 0.00 0.00 63 1009.3
20260504033035 51 304 7.0 13.0 0.00 0.00 0.00 62 1009.5
20260504031523 52 279 5.0 15.0 0.00 0.00 0.00 60 1009.5
20260504030021 52 244 4.0 12.0 0.00 0.00 0.00 59 1009.6
20260504024539 52 277 5.0 11.0 0.00 0.00 0.00 59 1009.8
20260504023017 52 261 5.0 16.0 0.00 0.00 0.00 59 1009.7
20260504021511 52 276 4.0 14.0 0.00 0.00 0.00 62 1009.7
20260504020008 51 319 4.0 14.0 0.00 0.00 0.00 62 1009.7
20260504014522 51 301 7.0 13.0 0.00 0.00 0.00 62 1009.6
20260504013020 52 296 5.0 13.0 0.00 0.00 0.00 60 1009.7
20260504011523 51 336 3.0 13.0 0.00 0.00 0.00 61 1009.8
20260504010020 51 292 4.0 15.0 0.00 0.00 0.00 62 1009.8
20260504004533 51 352 4.0 14.0 0.00 0.00 0.00 62 1009.6
20260504003011 50 334 3.0 11.0 0.00 0.00 0.00 67 1009.6